N9WFD Weather Reports


Display with metric or nautical units.
time (UTC)temp
F
wind
direction
speed
MPH
gust
MPH
rain 1hr
in
rain 24hr
in
rain mn
in
humidity
%
barometer
mb
20260906193034 77 172 5.0 11.0 0.00 0.02 0.01 64 1018.3
20260906191533 76 164 4.0 11.0 0.00 0.02 0.01 66 1018.5
20260906190028 77 236 5.0 11.0 0.01 0.02 0.01 65 1018.6
20260906184528 77 268 4.0 12.0 0.01 0.02 0.01 65 1018.6
20260906183026 76 149 5.0 11.0 0.01 0.02 0.01 65 1018.5
20260906181538 76 173 5.0 10.0 0.01 0.02 0.01 63 1018.5
20260906180036 77 171 3.0 11.0 0.00 0.01 0.00 63 1018.5
20260906174520 76 158 5.0 12.0 0.00 0.01 0.00 65 1018.7
20260906173026 77 195 4.0 13.0 0.00 0.01 0.00 67 1018.7
20260906171518 77 234 4.0 10.0 0.00 0.01 0.00 68 1018.9
20260906170014 76 179 3.0 11.0 0.00 0.01 0.00 71 1018.9
20260906164514 76 186 5.0 9.0 0.00 0.01 0.00 71 1019.0
20260906163012 76 228 3.0 10.0 0.00 0.01 0.00 73 1019.0
20260906161516 75 184 3.0 14.0 0.00 0.01 0.00 73 1018.9
20260906160014 75 170 4.0 11.0 0.00 0.01 0.00 73 1018.8
20260906154505 75 118 1.0 11.0 0.00 0.01 0.00 74 1018.6
20260906153003 75 148 6.0 13.0 0.00 0.01 0.00 74 1018.5
20260906151605 75 247 6.0 13.0 0.00 0.01 0.00 77 1018.6
20260906150029 74 268 4.0 10.0 0.00 0.01 0.00 78 1018.6
20260906144526 73 249 3.0 11.0 0.00 0.01 0.00 80 1018.5
20260906143023 73 215 4.0 10.0 0.00 0.01 0.00 81 1018.6
20260906141521 72 225 2.0 9.0 0.00 0.01 0.00 83 1018.6
20260906140017 72 210 4.0 9.0 0.00 0.01 0.00 83 1018.8
20260906134515 72 149 2.0 6.0 0.00 0.01 0.00 86 1018.8
20260906133008 71 212 2.0 7.0 0.00 0.01 0.01 89 1018.4
20260906131508 70 250 2.0 8.0 0.00 0.01 0.01 89 1018.2
20260906130010 69 188 2.0 7.0 0.00 0.01 0.01 86 1018.2
20260906124506 68 182 0.0 7.0 0.00 0.01 0.01 84 1018.3
20260906123001 67 191 2.0 6.0 0.00 0.01 0.01 84 1018.0
20260906121602 67 206 1.0 4.0 0.00 0.01 0.01 83 1017.8
20260906121500 67 206 1.0 4.0 0.00 0.01 0.01 83 1017.8
20260906120100 66 152 1.0 3.0 0.00 0.01 0.01 84 1017.8
20260906114558 66 142 0.0 4.0 0.00 0.01 0.01 85 1017.4
20260906113054 66 167 0.0 6.0 0.00 0.01 0.01 84 1017.1
20260906111608 66 175 0.0 3.0 0.00 0.01 0.01 85 1017.0
20260906110053 66 154 1.0 3.0 0.00 0.01 0.01 85 1017.1
20260906104551 66 174 1.0 5.0 0.00 0.01 0.01 85 1017.0
20260906103150 66 144 2.0 5.0 0.00 0.01 0.01 85 1016.8
20260906101546 66 164 0.0 5.0 0.00 0.01 0.01 85 1016.8
20260906100046 66 156 1.0 6.0 0.00 0.01 0.01 85 1016.6
20260906094545 66 164 0.0 3.0 0.00 0.01 0.01 85 1016.6
20260906093042 66 157 0.0 2.0 0.00 0.01 0.01 86 1016.5
20260906091538 66 164 0.0 4.0 0.00 0.01 0.01 86 1016.4
20260906090038 66 143 0.0 3.0 0.00 0.01 0.01 86 1016.5
20260906084538 66 159 0.0 3.0 0.00 0.01 0.01 87 1016.3
20260906083037 66 154 0.0 4.0 0.00 0.01 0.01 87 1016.5
20260906081534 66 94 0.0 2.0 0.00 0.01 0.01 87 1016.3
20260906080034 66 94 0.0 3.0 0.00 0.01 0.01 87 1016.3
20260906074535 66 89 0.0 2.0 0.00 0.01 0.01 87 1016.4
20260906073033 66 85 0.0 2.0 0.00 0.01 0.01 88 1016.5
20260906071502 66 85 0.0 2.0 0.00 0.01 0.01 88 1016.4
20260906064557 67 85 0.0 2.0 0.00 0.01 0.01 88 1016.5
20260906063057 67 83 0.0 1.0 0.00 0.01 0.01 89 1016.4
20260906061558 67 83 0.0 1.0 0.00 0.01 0.01 89 1016.5
20260906060054 68 83 0.0 1.0 0.00 0.01 0.01 89 1016.5
20260906054536 68 83 0.0 2.0 0.00 0.01 0.01 90 1016.5
20260906053020 68 83 0.0 3.0 0.00 0.01 0.01 90 1016.5
20260906051514 68 150 0.0 3.0 0.00 0.01 0.01 90 1016.1
20260906050012 69 94 0.0 3.0 0.00 0.01 0.01 90 1016.1
20260906044510 69 133 0.0 3.0 0.00 0.01 0.01 90 1016.0
20260906043015 69 150 2.0 5.0 0.00 0.01 0.01 90 1015.8
20260906041506 69 181 2.0 8.0 0.00 0.01 0.01 90 1015.6
20260906040006 69 143 1.0 8.0 0.00 0.01 0.01 90 1015.4
20260906034503 69 194 3.0 7.0 0.00 0.01 0.01 90 1015.4
20260906033007 69 154 2.0 9.0 0.00 0.01 0.01 90 1015.3
20260906031559 69 150 2.0 9.0 0.00 0.01 0.01 89 1015.3
20260906030101 69 179 2.0 7.0 0.00 0.01 0.01 89 1015.2
20260906024610 70 123 2.0 5.0 0.00 0.01 0.01 89 1015.2
20260906023101 70 197 1.0 6.0 0.00 0.01 0.01 89 1015.2
20260906021523 71 149 3.0 10.0 0.00 0.01 0.01 88 1015.1
20260906020020 71 154 1.0 5.0 0.00 0.01 0.01 89 1015.1
20260906014518 71 208 1.0 9.0 0.00 0.01 0.01 88 1015.1
20260906013017 71 123 3.0 9.0 0.00 0.01 0.01 88 1015.2
20260906011517 71 152 2.0 10.0 0.00 0.01 0.01 88 1015.2
20260906010018 71 107 4.0 10.0 0.00 0.01 0.01 88 1015.1
20260906004542 71 123 1.0 9.0 0.00 0.01 0.01 88 1014.8
20260906003041 71 193 2.0 13.0 0.00 0.01 0.01 88 1014.7
20260906001539 71 156 6.0 10.0 0.00 0.01 0.01 87 1014.7
20260906000036 72 154 3.0 9.0 0.00 0.01 0.01 87 1014.7
20260905234534 72 160 5.0 15.0 0.00 0.01 0.01 86 1014.5
20260905233031 72 166 6.0 14.0 0.00 0.02 0.01 85 1014.6
20260905231526 74 200 5.0 12.0 0.00 0.02 0.01 85 1014.4
20260905230025 75 164 4.0 14.0 0.00 0.02 0.01 82 1014.2
20260905224602 77 135 6.0 13.0 0.00 0.02 0.01 80 1014.0
20260905223024 77 108 3.0 13.0 0.00 0.02 0.01 80 1013.9
20260905221522 77 152 2.0 13.0 0.00 0.02 0.01 81 1013.9
20260905220021 78 183 3.0 12.0 0.00 0.02 0.01 80 1013.9
20260905214520 79 220 2.0 13.0 0.00 0.02 0.01 79 1013.5
20260905213019 79 175 7.0 13.0 0.00 0.02 0.01 79 1013.4
20260905211537 80 144 4.0 13.0 0.00 0.02 0.01 77 1013.2
20260905210023 80 179 5.0 13.0 0.00 0.02 0.01 74 1013.2
20260905204517 81 176 6.0 13.0 0.00 0.02 0.01 74 1013.2
20260905204515 81 198 6.0 13.0 0.00 0.02 0.01 74 1013.2
20260905203014 81 177 3.0 7.0 0.00 0.02 0.01 75 1013.3
20260905201520 80 123 2.0 7.0 0.00 0.02 0.01 75 1013.2
20260905200020 81 158 4.0 10.0 0.00 0.02 0.01 75 1013.4
20260905194506 80 152 2.0 6.0 0.00 0.02 0.01 78 1013.5